TimeMDT,TemperatureF,Dew PointF,Humidity,Sea Level PressureIn,VisibilityMPH,Wind Direction,Wind SpeedMPH,Gust SpeedMPH,PrecipitationIn,Events,Conditions,WindDirDegrees,DateUTC
12:22 AM,46.4,39.2,76,29.85,10.0,NE,21.9,28.8,N/A,,Mostly Cloudy,40,2012-10-24 06:22:00
12:53 AM,46.0,37.0,71,29.74,10.0,NE,18.4,24.2,N/A,,Mostly Cloudy,40,2012-10-24 06:53:00
1:53 AM,45.0,37.0,74,29.75,7.0,NE,15.0,-,N/A,,Overcast,40,2012-10-24 07:53:00
2:53 AM,44.1,36.0,73,29.77,10.0,North,11.5,-,N/A,,Overcast,360,2012-10-24 08:53:00
3:53 AM,42.1,37.0,82,29.79,8.0,NNW,10.4,-,N/A,,Overcast,330,2012-10-24 09:53:00
4:53 AM,42.1,37.0,82,29.81,8.0,NNW,9.2,-,N/A,,Overcast,340,2012-10-24 10:53:00
5:53 AM,42.1,36.0,79,29.83,10.0,North,10.4,-,N/A,,Overcast,10,2012-10-24 11:53:00
6:41 AM,41.0,35.6,81,29.90,-9999.0,NNE,8.1,-,N/A,,Overcast,20,2012-10-24 12:41:00
6:49 AM,41.0,35.6,81,29.90,-9999.0,NNE,8.1,-,N/A,,Overcast,30,2012-10-24 12:49:00
6:50 AM,41.0,36.0,82,29.85,-9999.0,NNE,8.1,-,N/A,,Overcast,30,2012-10-24 12:50:00
7:27 AM,41.0,35.6,81,29.90,-9999.0,NE,9.2,-,N/A,,Overcast,40,2012-10-24 13:27:00
7:53 AM,41.0,36.0,82,29.86,10.0,NNE,5.8,-,N/A,,Overcast,20,2012-10-24 13:53:00
8:53 AM,41.0,37.9,89,29.87,8.0,ENE,11.5,-,N/A,,Overcast,70,2012-10-24 14:53:00
9:36 AM,42.8,37.4,81,29.91,10.0,ENE,8.1,-,N/A,,Overcast,70,2012-10-24 15:36:00
10:53 AM,46.9,35.1,63,29.85,10.0,East,13.8,-,N/A,,Overcast,80,2012-10-24 16:53:00
11:25 AM,48.2,35.6,62,29.88,10.0,East,11.5,-,N/A,,Overcast,80,2012-10-24 17:25:00
11:53 AM,48.9,36.0,61,29.82,10.0,East,12.7,-,N/A,,Overcast,100,2012-10-24 17:53:00
12:38 PM,50.0,35.6,58,29.82,10.0,East,12.7,-,N/A,,Overcast,80,2012-10-24 18:38:00
12:53 PM,51.1,36.0,56,29.76,10.0,East,12.7,-,N/A,,Overcast,100,2012-10-24 18:53:00
1:24 PM,51.8,35.6,54,29.80,10.0,East,12.7,-,N/A,,Overcast,90,2012-10-24 19:24:00
1:53 PM,51.1,37.0,59,29.75,10.0,East,10.4,-,N/A,,Overcast,90,2012-10-24 19:53:00
2:53 PM,51.1,37.0,59,29.73,10.0,ENE,13.8,-,N/A,,Overcast,70,2012-10-24 20:53:00
3:53 PM,48.0,37.9,68,29.74,10.0,ENE,16.1,-,N/A,,Overcast,60,2012-10-24 21:53:00
4:53 PM,46.0,37.0,71,29.78,10.0,ENE,11.5,-,N/A,,Overcast,60,2012-10-24 22:53:00
5:53 PM,45.0,35.1,68,29.77,10.0,NE,19.6,25.3,N/A,,Overcast,50,2012-10-24 23:53:00
6:53 PM,42.1,36.0,79,29.80,10.0,NE,17.3,-,N/A,,Overcast,40,2012-10-25 00:53:00
7:23 PM,42.8,35.6,76,29.81,10.0,NE,12.7,23.0,N/A,,Overcast,50,2012-10-25 01:23:00
7:34 PM,42.8,35.6,76,29.83,10.0,NNE,18.4,23.0,N/A,,Overcast,30,2012-10-25 01:34:00
7:53 PM,41.0,36.0,82,29.88,10.0,North,17.3,-,0.00,Rain,Light Rain,10,2012-10-25 01:53:00
8:13 PM,35.6,33.8,93,29.87,3.0,North,21.9,28.8,0.11,Rain,Heavy Rain,360,2012-10-25 02:13:00
8:24 PM,32.0,30.2,93,29.92,2.5,NNW,25.3,35.7,0.14,Snow,Light Snow,340,2012-10-25 02:24:00
8:30 PM,32.0,30.2,93,29.91,1.2,North,23.0,29.9,0.14,Snow,Light Snow,350,2012-10-25 02:30:00
8:37 PM,32.0,30.2,93,29.90,1.2,North,25.3,34.5,0.15,Snow,Light Snow,360,2012-10-25 02:37:00
8:53 PM,32.0,30.0,92,29.94,1.0,North,25.3,-,0.16,Snow,Light Snow,360,2012-10-25 02:53:00
9:03 PM,30.2,30.2,100,29.90,0.5,North,25.3,34.5,0.00,Fog-Snow,Snow,360,2012-10-25 03:03:00
10:53 PM,28.9,27.0,92,30.02,-9999.0,North,27.6,34.5,0.02,Snow,Light Snow,10,2012-10-25 04:53:00
11:08 PM,28.4,26.6,93,30.00,-9999.0,North,20.7,-,0.00,Snow,Snow,10,2012-10-25 05:08:00
11:50 PM,28.4,26.6,93,30.01,-9999.0,North,25.3,29.9,0.01,Snow,Snow,360,2012-10-25 05:50:00
11:53 PM,28.0,27.0,96,30.03,-9999.0,North,25.3,29.9,0.01,Snow,Snow,360,2012-10-25 05:53:00